Theta_e
303 303 305 306 307 306 304 302 301 300 299 299 300 301 301 302 301 304 310 316 317 315 314 315 315 315 316 316 312 316 314 317 317 316 317 317 318 319 320 322 322 320 324 323 322 323 322 318 317 318 313 313 312 311
300 303 304 304 303 302 302 300 299 299 299 300 300 301 302 303 301 304 313 316 317 317 315 314 313 315 314 316 315 315 316 318 320 314 314 314 320 319 319 318 319 320 318 317 317 316 314 315 315 314 313 313 311 310
303 303 302 302 302 299 298 299 299 299 300 300 301 302 303 304 301 305 314 314 317 317 315 312 311 314 315 316 316 315 316 319 320 319 317 315 317 312 316 316 318 317 315 313 311 314 313 313 313 312 312 311 309 306
299 300 299 299 298 299 299 300 301 301 303 303 302 302 303 304 301 308 314 314 316 314 313 313 315 316 316 316 315 314 314 316 316 317 316 311 313 314 313 313 314 314 313 313 313 313 312 312 312 312 311 309 306 305
299 299 298 298 299 299 299 300 302 303 304 304 304 304 305 303 303 311 314 314 315 314 311 311 313 315 315 315 315 314 314 314 315 315 314 312 313 313 309 308 310 314 311 312 312 315 313 312 311 311 309 307 306 305
298 298 297 298 298 298 299 301 302 303 304 305 305 305 304 303 311 310 312 313 314 314 312 306 310 311 313 314 315 314 314 314 315 316 315 316 316 313 309 309 312 315 316 314 315 314 314 313 311 310 309 307 305 304
298 298 298 298 298 298 299 301 303 303 304 304 305 304 304 308 310 312 311 312 313 314 312 310 309 311 312 314 314 314 314 314 314 314 314 315 313 311 305 309 311 316 316 315 315 315 312 311 311 309 308 306 304 304
298 298 298 298 298 298 300 301 303 304 304 304 305 306 307 309 309 311 312 313 313 313 312 307 307 313 313 314 314 314 314 313 313 313 313 312 311 309 308 308 313 315 315 315 314 315 314 312 310 308 307 305 304 304
297 297 297 297 297 298 303 304 304 304 304 304 306 308 309 309 308 309 310 313 313 312 311 309 307 311 313 313 314 314 314 310 312 311 311 311 307 309 310 312 314 315 315 314 314 313 312 311 309 308 306 304 304 304
296 296 296 297 297 300 304 305 305 305 306 307 307 306 308 308 308 308 309 311 311 312 310 309 310 309 313 312 312 312 311 307 310 308 311 307 308 313 314 314 314 315 315 315 312 310 310 309 309 307 305 304 304 304
295 295 296 297 298 301 305 305 305 306 307 308 308 307 307 307 307 308 309 308 308 308 309 309 310 310 313 311 311 312 308 307 310 309 310 308 309 311 315 314 314 315 314 314 312 312 310 310 309 306 304 304 304 303
294 295 296 297 298 301 303 304 305 306 308 306 307 307 308 308 307 307 304 305 304 306 307 308 309 312 313 314 314 312 310 309 312 310 311 311 308 314 314 313 314 314 313 312 312 311 309 306 305 305 304 304 303 305
294 296 297 297 298 301 302 305 304 306 306 307 307 307 307 306 306 307 307 306 303 306 307 309 309 312 312 312 311 311 311 310 309 309 312 309 312 312 313 313 314 313 312 311 308 306 305 305 305 304 304 304 305 306
294 296 296 297 298 300 302 303 304 305 305 305 306 305 305 305 305 303 304 304 307 307 308 311 311 312 312 311 308 311 309 308 310 311 311 308 313 312 312 312 313 311 309 308 308 306 304 305 304 304 304 304 306 306
293 295 296 297 297 299 301 302 303 304 304 302 305 304 303 305 306 307 306 307 309 310 310 310 310 311 310 310 308 307 311 312 309 309 306 313 313 312 312 311 312 310 309 309 308 305 305 304 304 305 304 305 306 307
293 295 296 297 298 299 300 301 303 305 304 305 305 306 307 306 308 308 308 308 309 309 310 310 308 310 310 309 310 310 310 310 308 307 313 314 313 312 312 312 311 310 309 309 305 304 305 304 304 304 304 306 307 307
293 295 297 297 298 298 300 301 303 303 304 305 305 306 305 306 307 308 308 308 309 310 308 307 309 309 306 307 309 305 307 305 311 314 314 314 313 312 312 311 310 310 310 308 304 304 305 304 304 304 305 306 306 306
297 296 296 297 297 298 301 300 302 303 303 304 304 305 306 308 308 308 306 307 309 309 308 308 308 308 307 309 305 306 310 311 313 313 314 315 314 312 312 311 311 310 310 306 304 304 305 305 305 305 305 306 306 306
297 296 296 297 299 301 301 301 301 302 303 303 305 305 306 308 306 305 305 305 306 307 308 307 306 305 304 306 308 309 309 310 312 312 314 314 314 312 312 311 311 310 308 305 304 305 305 305 305 305 305 306 306 307
296 295 297 298 300 300 302 302 302 302 303 303 305 305 306 306 305 304 302 302 302 301 302 302 303 306 308 309 308 308 308 308 310 312 313 313 313 313 312 311 311 309 305 304 304 305 305 305 305 305 306 305 306 307
295 297 298 300 300 301 302 302 301 301 303 302 303 305 306 305 305 305 304 304 304 302 301 302 303 306 305 306 306 306 307 307 308 311 313 313 313 313 312 311 310 307 305 306 305 304 305 306 305 305 306 305 305 307
296 298 298 299 301 301 301 301 301 302 302 301 302 303 305 306 306 305 305 305 304 303 303 303 303 303 305 305 305 305 306 307 306 307 309 312 312 312 311 311 310 307 307 307 307 305 304 306 306 305 306 305 305 306
298 299 300 300 300 299 299 299 301 301 301 301 301 301 301 302 303 305 305 304 304 304 304 304 304 304 304 305 305 305 305 305 306 308 308 310 312 312 311 311 310 309 308 308 308 307 306 305 306 305 305 305 304 305
299 299 300 300 300 299 300 301 300 301 301 300 300 302 301 303 303 303 300 302 303 303 303 303 303 304 305 305 304 305 306 306 308 310 310 311 312 312 311 310 308 309 309 308 308 308 307 305 306 306 305 305 305 305
298 298 298 299 300 300 300 300 300 300 299 302 302 301 302 303 299 299 299 303 304 304 304 303 304 305 304 304 305 305 305 307 309 310 311 311 311 311 311 310 309 309 310 310 310 310 308 305 306 306 305 305 305 305
292 296 298 299 299 299 300 300 300 300 300 302 301 303 303 301 301 300 301 304 305 304 304 304 304 304 304 304 305 304 306 309 309 309 309 309 308 308 309 309 308 309 309 309 309 309 308 305 305 307 305 304 305 306
294 297 298 299 299 301 301 301 302 301 302 303 299 301 300 298 300 301 303 304 304 304 304 304 303 304 305 304 304 302 306 307 307 307 308 309 308 308 308 308 308 308 308 308 309 308 306 304 304 307 306 305 305 307
298 299 299 300 300 300 300 300 300 301 301 303 302 302 298 298 295 302 302 303 303 304 304 304 304 305 305 305 305 303 302 303 305 305 305 306 306 306 306 306 307 307 307 308 307 307 306 305 304 304 307 305 305 306
297 299 299 299 301 301 302 302 302 303 303 303 302 298 303 302 302 303 302 303 303 303 304 303 301 302 303 304 303 303 303 303 302 303 304 305 306 306 306 305 305 305 306 307 307 307 307 305 305 304 304 306 305 306
298 299 299 299 300 300 302 303 303 303 303 303 302 302 301 302 302 302 303 303 303 303 302 302 301 301 302 302 302 302 302 302 301 302 302 303 303 304 305 306 306 305 304 304 305 307 307 306 305 304 304 304 306 305
298 298 298 299 300 302 303 303 303 303 303 302 302 301 301 301 301 301 301 301 301 301 301 301 301 300 300 299 299 300 300 300 301 301 302 302 302 302 303 304 305 306 306 304 304 305 307 307 306 305 304 303 305 306
298 299 301 301 302 303 303 304 302 300 300 298 297 297 298 298 299 300 300 300 300 301 300 300 300 300 300 299 298 298 298 298 299 300 300 301 302 302 302 304 304 304 305 306 305 305 306 307 306 305 305 304 303 304
302 302 302 302 303 302 302 303 302 301 300 299 300 300 300 300 300 301 301 301 301 301 301 301 301 300 299 299 298 298 298 299 298 298 298 299 300 301 301 302 304 305 305 305 306 305 307 308 307 306 305 305 304 303
Wind_Speed
20 20 18 16 18 20 19 20 20 19 18 16 15 13 10 7 8 9 8 7 4 2 3 2 2 3 2 3 2 5 4 5 4 3 2 2 2 1 2 1 3 2 2 1 1 1 3 2 2 2 2 3 3 2
14 13 14 15 18 18 17 18 18 18 16 16 14 13 10 8 10 11 8 8 8 6 4 4 8 5 4 2 2 3 0 2 1 3 0 1 1 1 2 2 2 1 4 3 5 4 2 3 1 5 3 4 2 5
13 13 14 16 17 14 13 14 14 16 15 15 13 12 10 10 12 13 11 6 7 6 10 10 7 9 7 6 1 2 2 1 0 1 2 1 1 3 2 3 1 0 2 2 3 1 1 5 8 6 5 4 4 5
8 6 7 10 8 10 10 11 10 13 13 13 11 10 11 11 14 14 12 8 9 2 2 2 4 4 7 8 4 0 2 3 3 3 1 2 2 3 3 2 3 2 4 3 2 1 4 6 5 5 4 4 5 7
5 5 7 5 8 10 11 11 10 11 11 13 8 8 11 13 14 13 11 8 9 4 2 5 5 7 7 8 6 3 2 2 2 2 1 3 2 2 2 2 2 4 6 4 5 8 4 6 11 6 2 4 5 7
4 4 4 5 8 10 11 11 9 10 10 10 6 11 14 14 12 11 7 10 8 5 3 2 3 4 8 11 9 6 4 3 1 2 3 3 2 1 2 2 4 5 7 7 2 8 4 12 10 5 1 3 6 3
4 4 6 7 9 11 12 9 8 7 8 8 10 14 16 15 14 8 3 4 14 7 3 3 4 3 6 10 11 7 6 4 2 2 3 2 2 2 2 2 3 4 2 3 7 12 11 13 6 6 2 3 4 5
7 6 7 9 11 12 10 8 5 6 7 7 12 14 17 14 15 11 2 2 11 6 4 2 4 1 8 6 5 6 4 4 3 2 2 2 2 1 1 5 6 7 10 15 13 1 1 10 9 7 2 2 3 6
9 7 7 8 11 10 6 3 4 4 8 13 15 14 12 12 10 10 7 4 9 5 3 3 3 3 7 5 5 5 3 0 2 2 2 2 1 3 6 9 16 17 13 14 7 4 7 8 8 5 1 1 4 8
9 7 6 8 11 6 4 1 5 10 14 17 18 8 5 11 7 10 5 3 5 6 5 4 4 3 5 5 3 3 2 2 1 3 1 2 3 11 7 5 10 18 11 12 10 9 9 9 7 4 2 3 8 10
7 6 5 7 8 4 2 7 10 13 15 15 6 3 12 13 10 5 3 3 4 3 6 5 13 3 6 4 4 3 3 1 1 3 2 1 3 2 5 9 14 20 11 12 5 2 5 2 5 4 4 9 12 15
6 5 3 5 7 4 2 10 9 10 9 10 8 11 14 6 4 1 3 2 3 5 5 6 8 8 4 5 4 3 3 1 3 1 2 2 3 6 2 8 15 17 12 12 5 3 3 4 4 4 10 13 17 14
6 6 2 4 5 3 3 10 12 6 10 14 6 5 2 3 3 5 6 4 3 5 7 8 6 8 4 3 5 3 2 3 0 2 2 4 3 1 8 15 17 14 13 7 5 4 3 4 5 7 15 18 17 13
5 7 3 3 2 1 3 2 15 7 4 4 4 4 3 4 5 5 5 4 6 5 12 13 6 4 4 4 3 3 2 2 2 0 3 3 4 13 18 19 18 15 9 7 6 3 3 5 8 14 16 19 15 12
3 5 5 3 2 2 3 10 3 17 5 2 5 4 6 9 8 4 7 7 4 6 12 8 5 4 4 4 2 2 2 1 3 3 3 8 10 20 20 18 14 12 10 8 4 3 4 7 13 16 19 17 13 10
2 5 4 1 2 3 3 6 2 13 4 3 2 2 3 5 1 4 5 2 6 13 9 5 4 3 1 3 2 4 5 4 3 3 9 6 16 22 20 16 13 11 9 6 4 3 4 11 14 18 19 16 13 9
4 3 3 2 2 2 3 6 2 4 4 3 4 7 8 5 3 5 4 6 6 3 3 3 3 3 3 3 2 3 4 2 6 5 6 5 17 22 20 16 14 11 7 3 2 3 6 13 16 19 19 15 11 7
2 2 3 3 2 2 3 3 2 2 2 5 4 3 3 2 12 7 5 4 3 4 2 3 4 2 3 4 2 2 0 2 4 4 2 6 16 18 18 16 13 9 5 2 1 2 7 14 18 20 19 14 9 7
1 1 4 4 4 5 1 1 1 1 4 4 4 6 4 6 9 9 9 7 8 9 8 4 3 1 2 3 2 2 3 5 5 4 1 8 13 17 17 16 13 10 5 3 1 2 8 14 17 20 18 14 10 9
2 4 5 4 3 2 0 1 2 2 3 1 4 2 7 11 12 10 9 8 7 4 3 2 3 3 3 4 3 2 3 4 4 3 6 10 14 16 16 17 14 10 7 5 3 4 11 17 18 21 19 15 11 8
4 7 4 2 4 1 1 1 2 2 4 2 4 5 6 12 9 5 5 4 2 2 2 1 3 5 4 2 3 4 3 4 3 1 3 12 15 15 18 18 15 9 8 6 3 4 5 15 19 22 19 16 13 9
6 7 5 1 2 1 1 1 1 3 3 1 6 3 5 4 4 3 3 1 1 2 4 4 4 4 5 4 5 7 8 8 9 9 9 11 16 21 22 22 19 13 10 6 3 3 3 11 19 24 20 18 15 9
7 5 1 2 2 1 1 1 2 0 2 2 3 3 2 2 3 7 2 3 4 6 9 9 8 8 9 9 8 10 12 12 12 12 15 14 15 23 25 22 15 13 10 8 5 2 1 2 17 25 22 22 18 13
4 1 1 1 2 2 3 1 1 1 1 2 2 2 2 3 6 2 2 3 3 5 4 5 7 10 11 9 10 12 11 12 11 11 14 17 20 23 26 18 18 15 10 6 6 5 2 1 13 21 23 24 23 13
0 0 1 1 1 1 2 1 1 2 1 1 2 1 1 3 2 1 2 2 2 2 2 5 9 11 7 6 5 8 14 12 12 10 17 18 18 23 26 20 16 14 12 9 8 8 6 3 9 18 23 24 21 14
2 1 2 1 1 1 1 1 1 2 2 1 1 2 1 2 1 3 2 2 3 2 3 5 14 11 5 0 5 12 2 9 13 15 15 20 19 18 19 18 18 18 14 10 8 8 8 4 6 17 20 24 22 15
2 2 2 3 3 3 1 1 2 2 2 2 3 2 1 1 2 2 2 4 3 2 1 1 7 8 5 1 7 9 9 8 11 12 11 18 19 18 16 16 16 13 10 10 10 9 5 4 4 13 18 22 22 18
3 2 1 3 2 2 0 1 1 2 2 3 4 2 4 5 4 1 3 5 5 5 5 4 4 4 5 4 0 5 3 6 8 7 6 11 13 11 12 13 13 12 11 11 13 11 8 5 2 4 15 21 24 20
3 2 3 2 1 1 1 2 2 1 2 4 3 3 3 4 3 3 4 5 8 9 8 6 6 8 8 8 6 5 7 8 9 5 4 7 10 11 10 8 8 8 10 13 15 13 11 7 3 3 4 13 23 24
2 3 2 1 1 2 2 3 2 4 5 7 6 5 6 7 9 9 8 7 8 10 8 6 5 5 7 8 9 9 7 8 11 9 6 7 8 9 10 12 12 12 11 10 14 17 16 14 11 7 4 6 18 27
3 2 2 2 2 2 4 5 6 6 8 7 11 11 10 8 9 8 10 11 11 11 11 11 10 8 6 6 7 9 10 11 11 9 8 8 9 11 12 13 14 13 12 15 16 18 20 20 16 10 6 4 5 18
3 3 2 2 3 3 3 3 3 3 4 4 2 2 1 2 2 1 2 4 12 15 12 8 8 7 7 7 6 5 6 7 8 11 13 13 12 12 14 16 15 18 18 15 12 14 20 22 20 15 10 7 4 5
3 4 3 2 2 1 2 2 1 2 3 2 2 2 1 1 1 2 3 3 4 7 9 11 12 14 14 15 18 19 20 19 16 14 15 17 17 17 16 17 18 18 17 20 19 13 19 23 22 18 13 10 7 6
Wind_Direction
240 245 254 258 263 271 281 287 290 293 294 291 290 288 279 257 231 209 201 197 214 272 253 211 120 72 48 30 99 338 4 5 23 63 119 211 160 288 70 329 133 114 40 217 93 235 305 360 290 235 195 130 131 34
240 238 245 256 265 275 283 284 286 287 286 283 282 278 267 240 216 203 183 201 218 241 272 281 249 265 262 271 8 10 76 276 23 87 321 117 115 27 138 282 54 61 186 198 174 223 271 303 278 118 91 99 26 357
216 228 242 255 267 278 275 279 288 289 287 282 274 265 248 232 203 199 181 217 219 258 277 273 253 237 240 224 203 324 298 257 138 343 171 136 232 129 167 243 187 86 146 136 65 199 153 127 136 118 93 66 41 11
203 235 249 271 287 284 283 286 292 299 300 293 272 254 232 213 197 192 186 217 217 257 273 223 188 173 196 191 204 339 348 239 265 302 263 136 180 195 210 223 167 195 144 141 279 226 173 196 167 139 99 55 34 16
207 237 262 292 298 295 288 286 289 295 303 299 268 227 207 189 187 186 188 205 209 218 273 301 262 205 204 210 211 226 293 303 262 228 180 235 219 145 31 65 270 186 179 166 224 215 171 183 173 155 79 46 24 14
193 240 271 304 313 306 294 286 283 286 295 298 234 179 177 172 172 164 201 226 221 216 275 339 269 222 206 210 206 230 256 258 258 247 254 252 236 211 114 199 248 234 246 238 318 171 149 150 162 161 90 38 7 48
208 270 290 311 315 319 305 283 274 287 285 284 169 170 161 158 178 175 201 232 204 192 256 294 306 194 189 183 203 221 251 230 244 263 245 263 200 196 120 188 223 205 181 177 132 153 135 160 180 167 141 29 41 107
205 233 267 297 314 317 312 283 253 268 272 172 161 153 158 173 184 197 289 263 183 194 252 174 269 239 173 180 176 196 200 206 227 266 251 230 163 187 262 231 182 172 147 141 148 103 217 179 162 160 132 41 98 130
217 236 262 294 312 321 319 282 254 229 164 142 144 153 161 167 180 205 222 231 193 217 252 206 175 206 167 155 164 169 192 118 226 247 250 166 335 224 227 195 187 183 169 175 169 141 151 164 160 165 150 133 136 140
229 255 277 311 323 328 347 198 177 171 159 152 153 152 161 178 173 184 199 218 207 219 228 241 205 234 166 152 138 138 156 159 164 253 266 104 253 243 228 238 216 188 186 178 166 159 175 180 187 186 159 150 145 139
236 260 284 318 331 327 10 173 179 175 173 155 150 157 153 157 166 198 223 210 204 255 217 221 202 175 167 126 168 188 159 163 82 269 138 303 284 279 308 222 197 188 184 188 195 193 172 201 206 196 170 153 146 141
218 231 268 323 336 340 191 183 194 193 170 148 143 133 138 159 161 152 225 242 207 228 205 191 200 186 147 156 133 147 124 92 225 305 78 284 258 314 324 169 174 181 177 185 207 184 188 195 180 165 160 151 145 138
208 205 243 309 324 316 229 197 197 195 153 133 138 153 187 186 143 198 203 224 239 209 189 177 178 162 138 124 87 98 106 222 286 57 234 232 327 155 149 149 152 159 166 164 149 141 154 161 154 153 154 151 145 135
212 208 223 291 270 264 229 141 210 183 149 126 154 158 211 211 221 187 193 216 229 207 171 170 145 152 126 79 114 117 208 102 77 152 242 270 223 161 152 149 148 145 144 139 122 113 125 150 152 154 155 152 143 137
221 209 216 280 276 249 231 201 222 201 173 208 199 201 211 237 243 222 235 272 233 203 170 150 88 92 54 103 57 96 112 208 196 224 240 328 186 168 160 155 151 142 140 129 105 98 127 153 160 154 155 153 150 147
202 184 196 187 195 265 220 168 166 183 191 251 258 289 250 241 220 127 152 139 127 145 139 98 84 71 120 116 124 205 149 207 241 243 310 305 180 175 169 165 158 148 141 121 101 96 141 161 161 159 158 157 154 155
161 174 185 177 216 234 213 190 121 154 184 258 240 255 287 273 131 130 104 78 86 126 71 85 89 158 120 92 182 182 190 217 305 328 338 205 184 176 175 172 170 165 153 137 115 115 150 164 167 166 164 161 162 165
133 179 194 199 198 192 186 167 136 140 262 253 269 345 228 118 121 123 90 76 45 93 87 105 113 96 148 162 246 232 25 17 34 27 15 191 185 185 183 180 178 168 165 151 121 154 166 169 169 169 169 165 165 151
199 229 183 212 165 146 147 69 59 347 261 281 253 281 156 145 115 111 106 108 120 129 124 101 74 172 218 195 145 105 51 32 28 20 173 187 188 188 188 189 185 172 170 149 112 134 165 170 172 174 170 170 155 149
47 149 155 203 78 68 150 157 168 278 308 351 210 222 132 138 130 118 111 105 100 83 81 93 183 189 139 119 105 56 24 6 4 356 180 173 180 191 195 192 184 176 173 164 129 122 173 177 178 178 173 172 162 142
125 140 151 133 19 0 122 317 153 311 271 260 169 161 107 140 138 136 117 98 73 74 122 149 197 195 223 233 278 290 289 310 316 288 224 198 195 189 190 186 179 172 167 156 120 103 163 185 184 182 180 179 177 170
144 141 131 297 274 324 167 127 141 254 281 170 144 130 124 153 154 159 160 161 231 219 199 202 210 214 224 243 288 299 287 271 267 257 248 228 210 190 190 189 182 173 173 166 143 92 90 186 190 189 189 187 184 185
133 127 86 12 345 327 66 345 273 192 124 315 119 90 71 101 157 156 207 229 238 261 267 264 250 247 238 250 269 295 296 280 262 254 241 229 210 197 192 189 193 187 182 182 186 189 107 152 194 194 194 191 188 190
117 82 53 360 327 305 325 291 285 50 92 61 68 84 104 122 158 201 253 233 235 257 244 233 238 230 229 245 280 275 255 261 245 246 215 199 196 199 191 190 192 198 200 207 236 241 230 199 193 195 195 194 201 212
33 97 356 295 253 294 279 316 57 59 75 57 92 88 157 164 116 221 239 251 206 251 256 216 211 221 241 285 267 304 261 231 216 205 191 189 192 192 192 196 205 207 212 226 234 248 250 229 193 193 196 199 205 209
85 227 201 268 262 202 315 111 172 176 134 108 79 139 152 97 77 248 233 223 211 263 293 256 214 214 207 146 301 321 28 175 188 189 181 180 175 169 175 185 191 205 215 217 237 237 242 226 190 190 192 196 201 202
351 298 262 243 263 288 324 127 137 138 143 161 177 134 85 79 261 255 233 206 194 195 337 127 182 208 232 118 22 6 82 133 135 136 168 196 207 213 202 190 192 193 214 207 206 201 220 228 180 189 188 192 193 194
266 284 275 336 253 239 182 123 147 180 186 149 140 172 183 192 230 227 214 207 204 193 189 196 187 183 188 200 222 6 37 113 115 122 128 137 134 145 167 190 213 219 190 189 186 183 197 217 202 170 192 190 188 193
274 298 317 314 297 269 229 209 236 209 185 189 184 214 229 216 224 237 247 237 224 222 226 227 225 223 222 228 234 235 254 276 289 290 220 165 163 163 175 181 190 202 199 199 198 195 192 189 179 167 158 191 194 192
317 330 290 283 241 246 234 223 238 235 237 241 250 257 255 272 278 274 252 247 249 224 227 237 253 261 245 239 239 238 232 224 245 260 237 214 199 193 187 188 195 201 213 215 203 202 199 200 204 199 186 181 197 200
281 281 269 256 263 265 267 266 268 273 272 268 275 275 276 281 279 260 243 237 237 242 249 260 259 252 263 261 250 245 241 244 240 240 236 226 217 213 215 214 211 210 212 218 219 211 203 204 208 206 195 180 185 203
258 255 244 248 255 271 280 280 294 300 310 305 283 233 240 244 267 328 294 250 228 235 246 248 238 253 272 285 277 254 241 243 246 244 240 238 233 224 217 214 213 216 218 224 232 226 205 202 207 207 200 191 176 171
257 269 270 276 285 276 253 287 334 311 281 281 273 248 246 217 307 307 314 263 239 236 246 255 256 261 263 266 272 272 267 263 262 264 256 247 240 233 228 219 215 214 214 215 223 223 205 198 202 209 209 203 197 199